Preview of NWS' New Version of Forecast
This preview is not operational and should not be used for support decisions.

Regional Weather Roundup (RWR)

Issued by National Weather Service (NWS)

                            
000
ASUS46 KSEW 181210
RWRWA 

WASHINGTON REGIONAL WEATHER ROUNDUP
NATIONAL WEATHER SERVICE SEATTLE WA
500 AM PDT TUE JUN 18 2019

NOTE:"FAIR" INDICATES FEW OR NO CLOUDS BELOW 12,000 FEET WITH NO 
SIGNIFICANT WEATHER AND/OR OBSTRUCTIONS TO VISIBILITY.

WAZ507-509-555>559-181300-
SEATTLE, TACOMA, EVERETT, AND VICINITY
  
CITY           SKY/WX    TMP DP  RH WIND       PRES   REMARKS
EVERETT        CLOUDY    54  53  97 N7        30.17S                  
6HR MIN TEMP:  54; 6HR MAX TEMP:  59; 6HR PCP:  0.01;                

BOEING FIELD   CLOUDY    60  53  77 S5        30.16R                  
6HR MIN TEMP:  60; 6HR MAX TEMP:  67;                                

RENTON         CLOUDY    59  57  93 S3        30.17R FOG              
6HR MIN TEMP:  60; 6HR MAX TEMP:  68;                                

SEATAC AIRPORT DRIZZLE   58  54  86 SW8       30.17R FOG              
6HR MIN TEMP:  58; 6HR MAX TEMP:  65; 6HR PCP: TRACE;                

JBLM-MCCHORD   CLOUDY    58  57  99 SW8       30.17R                  
6HR MIN TEMP:  58; 6HR MAX TEMP:  62;                                

PUYALLUP       CLOUDY    57  55  94 VRB5      30.17S                  
BREMERTON      CLOUDY    56  54  93 S5        30.17R                  
6HR MIN TEMP:  56; 6HR MAX TEMP:  61;                                

JBLM-FT LEWIS  CLOUDY    57  57  99 S7        30.16S                  
6HR MIN TEMP:  57; 6HR MAX TEMP:  60;                                

TACOMA NARROWS CLOUDY    56  52  86 S7        30.17S                  
6HR MIN TEMP:  55; 6HR MAX TEMP:  59;                                

$$
 
WAZ001-503-506-510-514-515-181300-
NORTH INTERIOR
  
CITY           SKY/WX    TMP DP  RH WIND       PRES   REMARKS
BELLINGHAM     CLOUDY    59  53  80 S7        30.13R                  
6HR MIN TEMP:  59; 6HR MAX TEMP:  61;                                

FRIDAY HARBOR  MOCLDY    57  51  80 W9        30.15R                  
6HR MIN TEMP:  56; 6HR MAX TEMP:  62;                                

EASTSOUND      CLOUDY    59  54  82 S7        30.12R                  
PORT ANGELES   PTCLDY    53  50  89 W15G22    30.18R                  
6HR MIN TEMP:  53; 6HR MAX TEMP:  56;                                

EDIZ HOOK      PTSUNNY   52  50  95 W20       30.18S                  
6HR MIN TEMP:  52; 6HR MAX TEMP:  56;                                

PORT TOWNSEND  CLOUDY    57  54  88 W10G18    30.16R                  
NAS WHIDBEY    PTCLDY    57  50  77 W13       30.19R                  
6HR MIN TEMP:  56; 6HR MAX TEMP:  60;                                

ARLINGTON      CLOUDY    55  52  89 N6        30.18R                  
6HR MIN TEMP:  55; 6HR MAX TEMP:  61; 6HR PCP: TRACE;                

BURLINGTON     MOCLDY    55  54  94 S5        30.16R                  
$$
 
WAZ020-022-039-040-504-511-512-181300-
SOUTHWEST INTERIOR
  
CITY           SKY/WX    TMP DP  RH WIND       PRES   REMARKS
SHELTON        CLOUDY    57  52  83 SW9       30.14R                  
6HR MIN TEMP:  56; 6HR MAX TEMP:  59;                                

OLYMPIA        CLOUDY    56  52  86 S5        30.16R                  
6HR MIN TEMP:  54; 6HR MAX TEMP:  58;                                

CHEHALIS       CLOUDY    55  55 100 CALM      30.19S                  
KELSO          CLOUDY    58  54  86 VRB6      30.21R                  
6HR MIN TEMP:  58; 6HR MAX TEMP:  61;                                

VANCOUVER      CLOUDY    60  53  77 CALM      30.20R                  
6HR MIN TEMP:  59; 6HR MAX TEMP:  64;                                

SCAPPOOSE, OR  CLOUDY    59  54  83 NE3       30.19R                  
6HR MIN TEMP:  57; 6HR MAX TEMP:  61;                                

PORTLAND, OR   CLOUDY    61  53  75 NW6       30.20R                  
6HR MIN TEMP:  60; 6HR MAX TEMP:  65;                                

$$
 
WAZ021-516-517-181300-
WASHINGTON COAST
  
CITY           SKY/WX    TMP DP  RH WIND       PRES   REMARKS
FORKS          CLOUDY    54  51  90 NW3       30.22S                  
6HR MIN TEMP:  53; 6HR MAX TEMP:  55; 6HR PCP: TRACE;                

HOQUIAM        CLOUDY    55  53  93 NW8       30.21S                  
6HR MIN TEMP:  54; 6HR MAX TEMP:  56;                                

ASTORIA, OR    CLOUDY    56  54  93 NW8       30.22S                  
6HR MIN TEMP:  55; 6HR MAX TEMP:  57; 6HR PCP:  0.03;                

$$
 
WAZ019-023-024-040-567>569-181300-
CASCADE MOUNTAINS AND COLUMBIA GORGE
  
CITY           SKY/WX    TMP DP  RH WIND       PRES   REMARKS
STAMPEDE PASS  FOG       51  49  92 VRB6      30.17R VSB 1/4          
6HR MIN TEMP:  51; 6HR MAX TEMP:  53;                                

TROUTDALE, OR  CLOUDY    61  54  77 CALM      30.20R                  
6HR MIN TEMP:  59; 6HR MAX TEMP:  65;                                

HOOD RIVER, OR MOSUNNY   61  52  72 W6G18     30.12R                  
THE DALLES, OR PTCLDY    64  51  62 NW18G25   30.05R                  
6HR MIN TEMP:  64; 6HR MAX TEMP:  73;                                

$$

WAZ026-027-041>044-520-521-181300-
EAST SLOPES
  
CITY           SKY/WX    TMP DP  RH WIND       PRES   REMARKS
OMAK           PTCLDY    62  42  47 W12       29.95R                  
6HR MIN TEMP:  60; 6HR MAX TEMP:  76;                                

WENATCHEE      PTCLDY    68  45  43 W10       29.96R                  
6HR MIN TEMP:  68; 6HR MAX TEMP:  74;                                

ELLENSBURG     PTCLDY    63  50  62 NW21G28   30.00F                  
6HR MIN TEMP:  63; 6HR MAX TEMP:  67;                                

YAKIMA         PTCLDY    68  49  50 N10       30.01R                  
6HR MIN TEMP:  66; 6HR MAX TEMP:  73;                                

SUNNYSIDE ARPT MOSUNNY   56  53  89 N3        30.00                   
6HR MIN TEMP:  56; 6HR MAX TEMP:  73;                                

YAKIMA TC      FAIR      64  49  56 W6        30.01R                  
6HR MIN TEMP:  63; 6HR MAX TEMP:  71;                                

$$

WAZ028-034-035-181300-
COLUMBIA BASIN
  
CITY           SKY/WX    TMP DP  RH WIND       PRES   REMARKS
EPHRATA        CLOUDY    70  43  37 NW17      29.95R                  
6HR MIN TEMP:  68; 6HR MAX TEMP:  75;                                

MOSES LAKE     CLOUDY    64  47  53 SE3       29.96R                  
6HR MIN TEMP:  64; 6HR MAX TEMP:  76;                                

PASCO          CLEAR     67  53  61 S7        29.99R                  
6HR MIN TEMP:  58; 6HR MAX TEMP:  76;                                

RICHLAND ARPT  SUNNY     65  53  65 S6        29.98S                  
6HR MIN TEMP:  63; 6HR MAX TEMP:  75;                                

HERMISTON, OR  CLEAR     66  50  56 SW13      30.02R                  
6HR MIN TEMP:  66; 6HR MAX TEMP:  73;                                

$$

WAZ036>038-181300-
NORTHEAST WASHINGTON
  
CITY           SKY/WX    TMP DP  RH WIND       PRES   REMARKS
SPOKANE GEIGER PTCLDY    58  46  64 SW13      29.96R                  
6HR MIN TEMP:  58; 6HR MAX TEMP:  73;                                

SPOKANE FELTS  PTCLDY    63  48  58 SW9       29.96R                  
6HR MIN TEMP:  63; 6HR MAX TEMP:  75;                                

FAIRCHILD AFB  CLEAR     56  48  72 S9        29.96R                  
6HR MIN TEMP:  56; 6HR MAX TEMP:  71;                                

COEURDALENE,ID PTCLDY    60  52  74 SW8       29.98R                  
6HR MIN TEMP:  60; 6HR MAX TEMP:  68;                                

DEER PARK      CLEAR     59  49  69 S8        29.95R                  
6HR MIN TEMP:  50; 6HR MAX TEMP:  61;                                

$$

WAZ029>033-181300-
SOUTHEAST WASHINGTON
  
CITY           SKY/WX    TMP DP  RH WIND       PRES   REMARKS
PULLMAN        CLEAR     61  50  67 W13       30.02S                  
6HR MIN TEMP:  61; 6HR MAX TEMP:  67;                                

LEWISTON, ID   CLEAR     63  51  65 SE3       29.97R                  
6HR MIN TEMP:  63; 6HR MAX TEMP:  73;                                

WALLA WALLA    CLEAR     65  50  58 S12       30.03R                  
6HR MIN TEMP:  65; 6HR MAX TEMP:  74;                                

PENDLETON, OR  CLEAR     62  47  57 SW7       30.04R                  
6HR MIN TEMP:  60; 6HR MAX TEMP:  72;                                

$$